Weather History for Sitka, AK

Change the Weather History Date:

Friday, April 19, 2013

  Actual Average Record
Temperature  
Mean Temperature 39 °F -  
Max Temperature 46 °F 48 °F 59 °F (1967)
Min Temperature 32 °F 37 °F 30 °F (1954)
Degree Days  
Heating Degree Days 26    
Moisture  
Dew Point 27 °F    
Average Humidity 64    
Maximum Humidity 88    
Minimum Humidity 42    
Precipitation  
Precipitation 0.00 in - - ()
Sea Level Pressure  
Sea Level Pressure 30.15 in    
Wind  
Wind Speed 6 mph (NNW)    
Max Wind Speed 17 mph    
Max Gust Speed -    
Visibility 10 miles    
Events      
Averages and records for this station are not official NWS values.
T = Trace of Precipitation, MM = Missing Value Source: NWS Daily Summary

Daily Weather History Graph

Daily Weather History Graph

Search for Another Location

Airport:

Trip Planner

Search our weather history database for the weather conditions in past years. The results will help you decide how hot, cold, wet, or windy it might be!

Date:

Astronomy

Apr. 19, 2013 Rise Set
Actual Time 5:41 AM AKDT 8:20 PM AKDT
Civil Twilight 4:59 AM AKDT 9:03 PM AKDT
Nautical Twilight 4:03 AM AKDT 10:00 PM AKDT
Astronomical Twilight 2:50 AM AKDT 11:15 PM AKDT
Moon 1:02 PM AKDT (4/19) 3:15 AM AKDT (4/19)
Length of Visible Light 16h 04m
Length of Day
14h 38m
Waxing Gibbous, 63% of the Moon is Illuminated
Apr 19
Waxing Gibbous
Apr 25
Full
May 2
Last Quarter
May 9
New
May 17
First Quarter

Hourly Weather History & Observations

Time (AKDT) Temp. Windchill Dew Point Humidity Pressure Visibility Wind Dir Wind Speed Gust Speed Precip Events Conditions
12:53 AM 36.0 °F 30.3 °F 30.9 °F 82% 30.02 in 10.0 mi NW 6.9 mph - N/A   Scattered Clouds
1:53 AM 34.0 °F - 30.0 °F 85% 30.04 in 10.0 mi Calm Calm - N/A   Partly Cloudy
2:53 AM 35.1 °F 31.0 °F 28.0 °F 76% 30.05 in 10.0 mi NNW 4.6 mph - N/A   Clear
3:53 AM 35.1 °F 32.2 °F 28.0 °F 76% 30.07 in 10.0 mi North 3.5 mph - N/A   Clear
4:53 AM 35.1 °F 30.1 °F 28.0 °F 76% 30.08 in 10.0 mi North 5.8 mph - N/A   Clear
5:53 AM 32.0 °F 28.7 °F 27.0 °F 82% 30.09 in 10.0 mi East 3.5 mph - N/A   Partly Cloudy
6:53 AM 32.0 °F 28.7 °F 28.9 °F 88% 30.10 in 10.0 mi ESE 3.5 mph - N/A   Clear
7:53 AM 34.0 °F 31.0 °F 30.0 °F 85% 30.12 in 10.0 mi ESE 3.5 mph - N/A   Clear
8:53 AM 36.0 °F - 30.0 °F 79% 30.13 in 10.0 mi Calm Calm - N/A   Clear
9:53 AM 37.9 °F - 28.9 °F 70% 30.14 in 10.0 mi Calm Calm - N/A   Clear
10:53 AM 39.2 °F 35.0 °F 26.1 °F 59% 30.15 in 10.0 mi WNW 5.8 mph - N/A   Partly Cloudy
11:53 AM 43.0 °F 37.7 °F 21.0 °F 42% 30.16 in 10.0 mi NNW 9.2 mph - N/A   Partly Cloudy
12:53 PM 44.1 °F 40.1 °F 24.1 °F 45% 30.17 in 10.0 mi Variable 6.9 mph - N/A   Clear
1:53 PM 44.1 °F 37.4 °F 30.0 °F 58% 30.18 in 10.0 mi SW 13.8 mph - N/A   Partly Cloudy
2:53 PM 44.1 °F 39.5 °F 26.1 °F 49% 30.19 in 10.0 mi West 8.1 mph - N/A   Partly Cloudy
3:53 PM 46.0 °F 40.2 °F 25.0 °F 44% 30.19 in 10.0 mi West 12.7 mph - N/A   Scattered Clouds
4:53 PM 45.0 °F 38.9 °F 24.1 °F 44% 30.19 in 10.0 mi WNW 12.7 mph - N/A   Scattered Clouds
5:53 PM 45.0 °F 37.6 °F 25.0 °F 46% 30.20 in 10.0 mi WNW 17.3 mph - N/A   Partly Cloudy
6:53 PM 44.1 °F 36.5 °F 25.0 °F 47% 30.21 in 10.0 mi NW 17.3 mph - N/A   Clear
7:53 PM 43.0 °F 36.0 °F 26.1 °F 51% 30.22 in 10.0 mi NNW 13.8 mph - N/A   Clear
8:53 PM 41.0 °F 34.3 °F 26.1 °F 55% 30.23 in 10.0 mi NNW 11.5 mph - N/A   Clear
9:53 PM 37.0 °F 34.5 °F 24.1 °F 59% 30.25 in 10.0 mi East 3.5 mph - N/A   Clear
10:53 PM 36.0 °F 33.3 °F 24.1 °F 62% 30.26 in 10.0 mi East 3.5 mph - N/A   Clear
11:53 PM 34.0 °F 29.8 °F 24.1 °F 67% 30.27 in 10.0 mi NNE 4.6 mph - N/A   Clear